Simultaneous Nadir Overpasses (SNOs) Predictions

Prediction of SNOs between NOAA-19 and TERRA Satellite Orbit:

Table of predicted SNOs for the next 14.0 days since TLE Epoch: 3/15/2013
Index Date (NOAA-19) Time (NOAA-19) Lat,Lon (NOAA-19) SZA (NOAA-19 ) Date (TERRA) Time (TERRA) Lat,Lon (TERRA) SZA (TERRA ) Distance(km) Time Diff (sec)
1 03/16/2013 03:07:48 -70.26, -48.58 108.09 03/16/2013 03:08:55 -70.12, -46.34 108.28 85.81 67
2 03/16/2013 03:58:28 69.30, 120.14 70.91 03/16/2013 03:58:35 69.30, 120.19 70.91 1.91 7
3 03/16/2013 04:49:23 -68.70, -71.79 109.72 03/16/2013 04:48:12 -68.80, -72.82 109.60 42.91 71
4 03/18/2013 07:52:08 -69.99,-119.25 109.24 03/18/2013 07:53:18 -69.88,-117.75 109.38 58.67 70
5 03/18/2013 08:42:53 69.29, 49.06 70.03 03/18/2013 08:42:54 69.28, 49.08 70.02 1.49 1
6 03/18/2013 09:33:44 -68.48,-142.59 110.81 03/18/2013 09:32:35 -68.56,-144.20 110.71 65.86 69
7 03/20/2013 12:36:29 -69.79, 169.97 110.32 03/20/2013 12:37:40 -69.69, 170.91 110.44 38.08 71
8 03/20/2013 13:27:17 69.24, -21.96 69.11 03/20/2013 13:27:13 69.25, -22.03 69.12 3.15 4
9 03/20/2013 14:18:05 -68.28, 146.59 111.89 03/20/2013 14:16:58 -68.31, 144.42 111.82 89.05 67
10 03/22/2013 17:20:50 -69.60, 99.16 111.38 03/22/2013 17:22:01 -69.54, 99.63 111.46 19.61 71
11 03/22/2013 18:11:42 69.25, -93.07 68.25 03/22/2013 18:11:31 69.27, -93.09 68.26 1.85 11
12 03/24/2013 22:05:10 -69.38, 28.41 112.48 03/24/2013 22:06:22 -69.38, 28.34 112.49 2.65 72
13 03/24/2013 22:56:07 69.27,-164.19
